{"data":{"norad_id":53795,"epoch":"2026-05-24T19:39:58.507488Z","epoch_age_seconds":97491,"freshness":"FRESH","line1":"1 53795U 22111Y   26144.81942717  .00000245  00000+0  33502-4 0  9999","line2":"2 53795  53.2142 292.0428 0001238  82.8176 277.2957 15.08837130205182","mean_motion":15.0883713,"eccentricity":0.0001238,"inclination_deg":53.2142,"raan_deg":292.0428,"arg_perigee_deg":82.8176,"mean_anomaly_deg":277.2957,"bstar":3.3502e-5,"rev_number":20518,"period_min":95.437736212125,"perigee_km":538.89572674166,"apogee_km":540.60859609803,"semimajor_km":6917.8891614198,"source":"CELESTRAK","updated_at":"2026-05-25T13:38:17.544927Z"}}